Las Vegas, NV

2:14 PM PST on February 23, 2017 (GMT -0800)
Nellis Air Force Base

Weather History for KLSV - May, 2013

Change the Weather History Date:

Tuesday, May 14, 2013

  Actual Average Record
Temperature  
Mean Temperature 84 °F -  
Max Temperature 100 °F 87 °F 104 °F (1997)
Min Temperature 68 °F 61 °F 42 °F (1998)
Cooling Degree Days 19    
Growing Degree Days 34 (Base 50)    
Moisture  
Dew Point 27 °F    
Average Humidity 13    
Maximum Humidity 21    
Minimum Humidity 5    
Precipitation  
Precipitation 0.00 in - - ()
Sea Level Pressure  
Sea Level Pressure 29.78 in    
Wind  
Wind Speed 7 mph (SSW)    
Max Wind Speed 25 mph    
Max Gust Speed 31 mph    
Visibility 9 miles    
Events      
Averages and records for this station are not official NWS values.
T = Trace of Precipitation, MM = Missing Value Source: NWS Daily Summary

Daily Weather History Graph

Daily Weather History Graph

Search for Another Location

Airport or City:

Trip Planner

Search our weather history database for the weather conditions in past years. The results will help you decide how hot, cold, wet, or windy it might be!

Date:

Astronomy

May. 14, 2013 Rise Set
Actual Time 5:34 AM PDT 7:39 PM PDT
Civil Twilight 5:05 AM PDT 8:07 PM PDT
Nautical Twilight 4:30 AM PDT 8:42 PM PDT
Astronomical Twilight 3:53 AM PDT 9:20 PM PDT
Moon 9:17 AM PDT (5/14) 11:30 PM PDT (5/14)
Length of Visible Light 15h 01m
Length of Day
14h 04m
Waxing Crescent, 19% of the Moon is Illuminated
May 14
Waxing Crescent
May 17
First Quarter
May 24
Full
May 31
Last Quarter
Jun 8
New

Hourly Weather History & Observations

Time (PDT) Temp. Dew Point Humidity Pressure Visibility Wind Dir Wind Speed Gust Speed Precip Events Conditions
12:03 AM 78.8 °F 26.6 °F 15% 29.85 in 8.0 mi Variable 1.2 mph - N/A   Clear
12:28 AM 78.8 °F 28.4 °F 16% 29.85 in 6.0 mi NE 1.2 mph - N/A   Haze
12:48 AM 78.8 °F 26.6 °F 15% 29.85 in 7.0 mi NW 3.5 mph - N/A   Clear
12:53 AM 78.8 °F 26.6 °F 15% 29.85 in 10.0 mi NW 3.5 mph - N/A   Clear
12:58 AM 78.6 °F 26.2 °F 15% 29.78 in 10.0 mi NNW 3.5 mph - N/A   Clear
1:03 AM 77.0 °F 26.6 °F 16% 29.86 in 7.0 mi NNE 2.3 mph - N/A   Clear
1:08 AM 77.0 °F 26.6 °F 16% 29.86 in 6.0 mi Calm Calm - N/A   Haze
1:28 AM 77.0 °F 26.6 °F 16% 29.85 in 5.0 mi North 3.5 mph - N/A   Haze
1:33 AM 77.0 °F 26.6 °F 16% 29.86 in 7.0 mi North 1.2 mph - N/A   Clear
1:48 AM 75.2 °F 26.6 °F 17% 29.85 in 7.0 mi North 3.5 mph - N/A   Clear
1:58 AM 75.4 °F 26.6 °F 16% 29.78 in 8.0 mi NNW 2.3 mph - N/A   Clear
2:13 AM 75.2 °F 26.6 °F 17% 29.85 in 9.0 mi North 3.5 mph - N/A   Clear
2:23 AM 75.2 °F 26.6 °F 17% 29.86 in 9.0 mi ENE 4.6 mph - N/A   Clear
2:33 AM 71.6 °F 26.6 °F 19% 29.85 in 10.0 mi ENE 3.5 mph - N/A   Clear
2:58 AM 74.5 °F 27.3 °F 17% 29.78 in 10.0 mi ENE 2.3 mph - N/A   Clear
3:03 AM 73.4 °F 26.6 °F 18% 29.85 in 9.0 mi NE 2.3 mph - N/A   Clear
3:28 AM 71.6 °F 26.6 °F 19% 29.85 in 10.0 mi North 5.8 mph - N/A   Clear
3:53 AM 71.6 °F 26.6 °F 19% 29.86 in 7.0 mi ENE 3.5 mph - N/A   Clear
3:58 AM 72.1 °F 26.8 °F 18% 29.78 in 7.0 mi ENE 5.8 mph - N/A   Clear
4:03 AM 69.8 °F 26.6 °F 20% 29.85 in 7.0 mi ENE 5.8 mph - N/A   Clear
4:58 AM 70.7 °F 25.7 °F 19% 29.78 in 9.0 mi NNE 2.3 mph - N/A   Clear
5:03 AM 69.8 °F 26.6 °F 20% 29.86 in 8.0 mi NNE 2.3 mph - N/A   Clear
5:13 AM 68.0 °F 26.6 °F 21% 29.86 in 6.0 mi NE 4.6 mph - N/A   Haze
5:58 AM 68.0 °F 25.9 °F 21% 29.80 in 6.0 mi North 4.6 mph - N/A   Haze
6:58 AM 74.1 °F 29.8 °F 20% 29.81 in 9.0 mi NE 5.8 mph - N/A   Clear
7:58 AM 83.7 °F 33.4 °F 16% 29.81 in 5.0 mi SSE 3.5 mph - N/A   Haze
7:59 AM 84.2 °F 32.0 °F 15% 29.88 in 5.0 mi SSE 3.5 mph - N/A   Heavy Drizzle
8:08 AM 84.2 °F 33.8 °F 16% 29.89 in 9.0 mi South 2.3 mph - N/A   Clear
8:58 AM 86.5 °F 34.2 °F 15% 29.81 in 10.0 mi WSW 2.3 mph - 0.00 in   Clear
9:58 AM 90.7 °F 34.0 °F 13% 29.81 in 10.0 mi Variable 3.5 mph - N/A   Clear
10:58 AM 95.2 °F 31.1 °F 10% 29.78 in 10.0 mi South 5.8 mph - N/A   Clear
11:58 AM 97.2 °F 27.9 °F 9% 29.76 in 10.0 mi SSW 5.8 mph - N/A   Clear
12:57 PM 98.6 °F 24.8 °F 7% 29.82 in 10.0 mi SSW 15.0 mph 23.0 mph N/A   Clear
12:58 PM 99.1 °F 25.3 °F 7% 29.74 in 10.0 mi SSW 15.0 mph 23.0 mph N/A   Clear
1:58 PM 99.3 °F 25.7 °F 7% 29.72 in 10.0 mi SW 10.4 mph 23.0 mph N/A   Clear
2:06 PM 100.4 °F 26.6 °F 7% 29.79 in 10.0 mi South 18.4 mph 28.8 mph N/A   Clear
2:17 PM 100.4 °F 26.6 °F 7% 29.79 in 10.0 mi SW 12.7 mph 25.3 mph N/A   Clear
2:18 PM 100.4 °F 26.6 °F 7% 29.79 in 10.0 mi SW 13.8 mph - N/A   Clear
2:58 PM 99.3 °F 25.5 °F 7% 29.69 in 10.0 mi SSW 18.4 mph 23.0 mph N/A   Clear
3:30 PM 100.4 °F 26.6 °F 7% 29.75 in 10.0 mi SSW 13.8 mph 26.5 mph N/A   Clear
3:42 PM 100.4 °F 26.6 °F 7% 29.74 in 10.0 mi WSW 20.7 mph 28.8 mph N/A   Clear
3:43 PM 100.4 °F 26.6 °F 7% 29.74 in 10.0 mi WSW 23.0 mph 31.1 mph N/A   Clear
3:52 PM 100.4 °F 26.6 °F 7% 29.74 in 10.0 mi SSW 18.4 mph 31.1 mph N/A   Clear
3:53 PM 100.4 °F 26.6 °F 7% 29.74 in 10.0 mi South 19.6 mph 31.1 mph N/A   Clear
3:55 PM 100.4 °F 26.6 °F 7% 29.73 in 10.0 mi South 18.4 mph 25.3 mph N/A   Clear
3:56 PM 100.4 °F 26.6 °F 7% 29.73 in 10.0 mi South 18.4 mph 25.3 mph N/A   Clear
3:58 PM 100.0 °F 26.2 °F 7% 29.66 in 10.0 mi SSW 25.3 mph 31.1 mph N/A   Clear
4:58 PM 99.7 °F 25.9 °F 7% 29.64 in 10.0 mi SW 19.6 mph 27.6 mph N/A   Clear
5:58 PM 98.4 °F 25.0 °F 7% 29.62 in 10.0 mi SSW 19.6 mph - N/A   Clear
5:59 PM 98.6 °F 24.8 °F 7% 29.69 in 10.0 mi South 20.7 mph - N/A   Clear
6:58 PM 97.5 °F 24.3 °F 7% 29.61 in 10.0 mi SSW 23.0 mph - N/A   Clear
7:58 PM 93.9 °F 13.8 °F 5% 29.62 in 10.0 mi SW 23.0 mph 31.1 mph N/A   Clear
8:58 PM 90.0 °F 13.3 °F 6% 29.67 in 10.0 mi SW 15.0 mph - N/A   Clear
9:58 PM 87.1 °F 16.3 °F 7% 29.69 in 10.0 mi SW 19.6 mph - N/A   Clear
10:58 PM 84.2 °F 27.0 °F 12% 29.70 in 10.0 mi SSW 21.9 mph 31.1 mph N/A   Clear
11:58 PM 81.7 °F 26.4 °F 13% 29.72 in 10.0 mi SW 11.5 mph - N/A   Clear